Weather History for Keokuk, IA

Change the Weather History Date:

Tuesday, October 9, 2012

  Actual Average Record
Temperature  
Mean Temperature 58 °F -  
Max Temperature 71 °F 67 °F 88 °F (1938)
Min Temperature 46 °F 48 °F 28 °F (2000)
Degree Days  
Heating Degree Days 6    
Growing Degree Days 8 (Base 50)    
Moisture  
Dew Point 39 °F    
Average Humidity 55    
Maximum Humidity 82    
Minimum Humidity 29    
Precipitation  
Precipitation 0.06 in - - ()
Sea Level Pressure  
Sea Level Pressure 29.94 in    
Wind  
Wind Speed 12 mph (SW)    
Max Wind Speed 20 mph    
Max Gust Speed 26 mph    
Visibility 10 miles    
Events Rain    
Averages and records for this station are not official NWS values.
T = Trace of Precipitation, MM = Missing Value Source: NWS Daily Summary

Daily Weather History Graph

Daily Weather History Graph

Search for Another Location

Airport:

Trip Planner

Search our weather history database for the weather conditions in past years. The results will help you decide how hot, cold, wet, or windy it might be!

Date:

Astronomy

Oct. 09, 2012 Rise Set
Actual Time 7:10 AM CDT 6:34 PM CDT
Civil Twilight 6:43 AM CDT 7:01 PM CDT
Nautical Twilight 6:11 AM CDT 7:32 PM CDT
Astronomical Twilight 5:40 AM CDT 8:04 PM CDT
Moon 12:46 AM CDT (10/9) 3:02 PM CDT (10/9)
Length of Visible Light 12h 17m
Length of Day
11h 23m
Last Quarter, 36% of the Moon is Illuminated
Oct 9
Last Quarter
Oct 15
New
Oct 21
First Quarter
Oct 29
Full
Nov 6
Last Quarter

Hourly Weather History & Observations

Time (CDT) Temp. Windchill Dew Point Humidity Pressure Visibility Wind Dir Wind Speed Gust Speed Precip Events Conditions
12:15 AM 53.6 °F - 33.8 °F 47% 29.97 in 10.0 mi SSW 11.5 mph - N/A   Clear
12:35 AM 53.6 °F - 35.6 °F 51% 29.96 in 10.0 mi SSW 11.5 mph - N/A   Clear
12:55 AM 53.6 °F - 35.6 °F 51% 29.96 in 10.0 mi SSW 11.5 mph - N/A   Clear
1:15 AM 53.6 °F - 35.6 °F 51% 29.96 in 10.0 mi SSW 12.7 mph 18.4 mph N/A   Clear
1:35 AM 53.6 °F - 35.6 °F 51% 29.96 in 10.0 mi SSW 12.7 mph - N/A   Clear
1:55 AM 51.8 °F - 35.6 °F 54% 29.96 in 10.0 mi SSW 11.5 mph - N/A   Clear
2:15 AM 51.8 °F - 35.6 °F 54% 29.96 in 10.0 mi SSW 11.5 mph 16.1 mph N/A   Clear
2:55 AM 51.8 °F - 35.6 °F 54% 29.95 in 10.0 mi SSW 11.5 mph - N/A   Clear
3:15 AM 50.0 °F - 35.6 °F 58% 29.94 in 10.0 mi SSW 12.7 mph - N/A   Clear
3:35 AM 50.0 °F - 35.6 °F 58% 29.94 in 10.0 mi SSW 11.5 mph 18.4 mph N/A   Clear
3:55 AM 50.0 °F - 37.4 °F 62% 29.94 in 10.0 mi SSW 11.5 mph - N/A   Clear
4:15 AM 50.0 °F - 37.4 °F 62% 29.94 in 10.0 mi SSW 10.4 mph - N/A   Clear
4:35 AM 50.0 °F - 37.4 °F 62% 29.94 in 10.0 mi SSW 9.2 mph - N/A   Clear
4:55 AM 50.0 °F - 37.4 °F 62% 29.94 in 10.0 mi SSW 9.2 mph - N/A   Clear
5:15 AM 48.2 °F - 37.4 °F 66% 29.94 in 10.0 mi SSW 8.1 mph - N/A   Clear
5:35 AM 48.2 °F - 37.4 °F 66% 29.94 in 10.0 mi SSW 6.9 mph - N/A   Clear
5:55 AM 48.2 °F - 37.4 °F 66% 29.94 in 10.0 mi SSW 10.4 mph - N/A   Clear
6:15 AM 48.2 °F - 37.4 °F 66% 29.94 in 10.0 mi SSW 9.2 mph - N/A   Clear
6:35 AM 48.2 °F - 37.4 °F 66% 29.94 in 10.0 mi SSW 10.4 mph - N/A   Clear
6:55 AM 48.2 °F - 37.4 °F 66% 29.94 in 10.0 mi SSW 10.4 mph - N/A   Clear
7:15 AM 48.2 °F - 37.4 °F 66% 29.94 in 10.0 mi SSW 12.7 mph 19.6 mph N/A   Clear
7:35 AM 50.0 °F - 37.4 °F 62% 29.93 in 10.0 mi SSW 12.7 mph 18.4 mph N/A   Clear
7:55 AM 50.0 °F - 39.2 °F 66% 29.94 in 10.0 mi SSW 11.5 mph 17.3 mph N/A   Clear
8:15 AM 50.0 °F - 39.2 °F 66% 29.93 in 10.0 mi SSW 13.8 mph - N/A   Clear
8:35 AM 51.8 °F - 39.2 °F 62% 29.93 in 10.0 mi SSW 13.8 mph 18.4 mph N/A   Clear
8:55 AM 53.6 °F - 39.2 °F 58% 29.93 in 10.0 mi SSW 13.8 mph 18.4 mph N/A   Clear
9:15 AM 55.4 °F - 41.0 °F 58% 29.93 in 10.0 mi SSW 13.8 mph 21.9 mph N/A   Clear
9:35 AM 57.2 °F - 41.0 °F 55% 29.93 in 10.0 mi SSW 18.4 mph 23.0 mph N/A   Clear
9:55 AM 59.0 °F - 39.2 °F 48% 29.93 in 10.0 mi SW 18.4 mph 23.0 mph N/A   Clear
10:15 AM 60.8 °F - 41.0 °F 48% 29.93 in 10.0 mi SW 16.1 mph 21.9 mph N/A   Clear
10:35 AM 62.6 °F - 39.2 °F 42% 29.94 in 10.0 mi SSW 18.4 mph 24.2 mph N/A   Clear
10:55 AM 64.4 °F - 39.2 °F 40% 29.94 in 10.0 mi SW 19.6 mph 23.0 mph N/A   Clear
11:15 AM 66.2 °F - 39.2 °F 37% 29.92 in 10.0 mi SSW 15.0 mph 18.4 mph N/A   Clear
11:35 AM 66.2 °F - 37.4 °F 35% 29.92 in 10.0 mi SW 16.1 mph 20.7 mph N/A   Clear
11:55 AM 66.2 °F - 37.4 °F 35% 29.91 in 10.0 mi SSW 12.7 mph 21.9 mph N/A   Clear
12:15 PM 68.0 °F - 37.4 °F 33% 29.91 in 10.0 mi South 15.0 mph 25.3 mph N/A   Clear
12:35 PM 68.0 °F - 39.2 °F 35% 29.90 in 10.0 mi SW 15.0 mph 21.9 mph N/A   Clear
12:55 PM 69.8 °F - 37.4 °F 31% 29.88 in 10.0 mi SSW 13.8 mph 21.9 mph N/A   Clear
1:15 PM 69.8 °F - 37.4 °F 31% 29.88 in 10.0 mi SW 16.1 mph 24.2 mph N/A   Clear
1:35 PM 71.6 °F - 37.4 °F 29% 29.87 in 10.0 mi WSW 15.0 mph 21.9 mph N/A   Clear
1:55 PM 71.6 °F - 37.4 °F 29% 29.87 in 10.0 mi WSW 18.4 mph 21.9 mph N/A   Clear
2:15 PM 69.8 °F - 39.2 °F 33% 29.86 in 10.0 mi SW 16.1 mph 24.2 mph N/A   Scattered Clouds
2:35 PM 71.6 °F - 39.2 °F 31% 29.85 in 10.0 mi SSW 16.1 mph 24.2 mph N/A   Clear
2:55 PM 69.8 °F - 41.0 °F 35% 29.85 in 10.0 mi SW 11.5 mph - N/A   Clear
3:15 PM 71.6 °F - 41.0 °F 33% 29.85 in 10.0 mi SW 11.5 mph 24.2 mph N/A   Clear
3:35 PM 71.6 °F - 41.0 °F 33% 29.86 in 10.0 mi SW 15.0 mph 23.0 mph N/A   Scattered Clouds
3:55 PM 69.8 °F - 41.0 °F 35% 29.86 in 10.0 mi WSW 18.4 mph 23.0 mph N/A   Mostly Cloudy
4:15 PM 69.8 °F - 42.8 °F 38% 29.86 in 10.0 mi West 11.5 mph 17.3 mph N/A   Overcast
4:35 PM 68.0 °F - 42.8 °F 40% 29.87 in 10.0 mi West 13.8 mph - N/A   Overcast
4:55 PM 66.2 °F - 39.2 °F 37% 29.87 in 10.0 mi NW 13.8 mph - N/A   Overcast
5:15 PM 64.4 °F - 39.2 °F 40% 29.87 in 10.0 mi NW 11.5 mph - N/A   Overcast
5:35 PM 64.4 °F - 39.2 °F 40% 29.89 in 10.0 mi WNW 9.2 mph - N/A   Overcast
5:55 PM 60.8 °F - 42.8 °F 52% 29.90 in 10.0 mi NNW 18.4 mph 25.3 mph N/A   Overcast
6:15 PM 59.0 °F - 42.8 °F 55% 29.92 in 10.0 mi NNW 11.5 mph 23.0 mph N/A   Overcast
6:35 PM 55.4 °F - 44.6 °F 67% 29.94 in 10.0 mi NNW 12.7 mph 26.5 mph N/A Rain Light Rain
6:55 PM 53.6 °F - 42.8 °F 67% 29.95 in 10.0 mi NNW 17.3 mph 26.5 mph N/A Rain Light Rain
7:15 PM 50.0 °F - 42.8 °F 76% 29.97 in 10.0 mi NNW 9.2 mph 12.7 mph 0.01 in Rain Light Rain
7:35 PM 48.2 °F - 41.0 °F 76% 29.98 in 10.0 mi NNW 6.9 mph - 0.05 in Rain Rain
7:55 PM 48.2 °F - 42.8 °F 82% 29.98 in 10.0 mi Calm Calm - 0.06 in Rain Light Rain
8:15 PM 48.2 °F - 42.8 °F 82% 29.97 in 10.0 mi Calm Calm - N/A   Overcast
8:35 PM 48.2 °F - 42.8 °F 82% 29.99 in 10.0 mi Calm Calm - N/A   Overcast
8:55 PM 48.2 °F - 41.0 °F 76% 29.99 in 10.0 mi Calm Calm - N/A   Overcast
9:15 PM 48.2 °F - 41.0 °F 76% 30.00 in 10.0 mi Calm Calm - N/A   Overcast
9:35 PM 48.2 °F - 42.8 °F 82% 30.01 in 10.0 mi West 3.5 mph - N/A   Overcast
9:55 PM 48.2 °F - 42.8 °F 82% 30.01 in 10.0 mi West 3.5 mph - N/A   Overcast
10:15 PM 48.2 °F - 41.0 °F 76% 30.01 in 10.0 mi West 5.8 mph - N/A   Overcast
10:35 PM 48.2 °F - 41.0 °F 76% 30.02 in 10.0 mi West 5.8 mph - N/A   Mostly Cloudy
10:55 PM 46.4 °F 43.5 °F 39.2 °F 76% 30.03 in 10.0 mi West 5.8 mph - N/A   Scattered Clouds
11:15 PM 46.4 °F 43.5 °F 37.4 °F 71% 30.03 in 10.0 mi West 5.8 mph - N/A   Clear
11:35 PM 46.4 °F 42.9 °F 37.4 °F 71% 30.04 in 10.0 mi WNW 6.9 mph - N/A   Clear
11:55 PM 46.4 °F 42.9 °F 37.4 °F 71% 30.04 in 10.0 mi WNW 6.9 mph - N/A   Clear